Location: *
(48.6128°S, 177.8312°W)
Time: 02:48:36
(UTC+00:00)

Daily predictions for brighter satellites

Satellite Brightness Start Highest point End
(mag) Time Altitude Azimuth Time Altitude Azimuth Time Altitude Azimuth
Uosat 12 SS-18 rocket 4.2 06:25:53 10° NNW 06:30:49 69° NE 06:35:08 10° SE
USA 234 3.8 06:24:46 10° SE 06:31:18 62° SSW 06:37:48 10° W
Cosmos 1674 3.6 06:29:05 10° NNE 06:32:16 27° E 06:35:27 10° SSE
Cosmos 2034 Rocket 4.1 06:26:52 10° N 06:33:09 89° E 06:39:28 10° S
Okean O Rocket 3.3 06:31:28 10° ESE 06:33:46 14° E 06:36:03 10° ENE
CORIOLIS 4.3 06:29:36 10° SSE 06:35:10 87° ENE 06:40:40 10° NNW
IRIDIUM 106 4.4 06:29:50 10° S 06:35:11 84° E 06:40:27 10° N
CZ-4C R/B 3.0 06:33:03 10° NNE 06:36:31 65° ESE 06:40:03 10° S
Cosmos 1908 Rocket 4.1 06:32:07 10° SSW 06:36:38 65° W 06:41:03 10° N
Cosmos 2237 Rocket 3.3 06:31:40 10° SSW 06:36:41 29° SE 06:41:37 10° ENE
USA 308 3.9 06:33:36 10° WSW 06:37:33 39° S 06:41:29 10° ESE
Meteor PRIRODA 4.1 06:33:54 10° S 06:37:40 69° WSW 06:41:23 10° NNW
Cosmos 2360 Rocket 3.4 06:33:33 10° SW 06:38:59 45° WNW 06:44:22 10° N
Okean 1-7 3.2 06:35:21 10° NNW 06:39:42 80° W 06:44:10 10° S
Cosmos 1437 Rocket 3.8 06:37:14 10° SSW 06:41:17 52° W 06:45:12 10° N
CZ-2D R/B 4.4 06:38:36 10° S 06:42:26 51° WSW 06:46:13 10° NNW
SJ-11-01 4.3 06:38:25 10° SSE 06:43:14 84° ENE 06:47:56 10° NNW
Cosmos 1300 Rocket 3.8 06:39:03 10° S 06:43:22 48° ESE 06:47:36 10° NNE
Cosmos 1782 Rocket 3.6 06:39:41 10° S 06:44:13 84° E 06:48:37 10° N
NOAA 6 4.0 06:39:13 10° SSE 06:44:26 79° ENE 06:49:36 10° NNW
In-Cosmos 22 4.3 06:39:10 10° N 06:44:28 52° E 06:49:58 10° SSE
ADEOS 4.0 06:39:27 10° SSE 06:44:46 72° WSW 06:50:00 10° NNW
COSMOS 2428 2.8 06:40:59 10° SSW 06:46:45 71° ESE 06:52:28 10° NE
Cosmos 405 Rocket 4.1 06:45:15 10° NNW 06:48:53 43° WSW 06:52:33 10° S
YAOGAN 1 3.7 06:46:25 10° SE 06:50:01 24° E 06:53:34 10° NNE
Alouette 2 Rocket 3.5 06:46:36 10° N 06:51:15 56° E 06:54:56 10° SSE
Okean 2 Rocket 4.0 06:47:31 10° S 06:51:29 29° ESE 06:55:22 10° NE
SJ 16-02 1.4 06:48:05 10° SSW 06:52:37 86° WNW 06:57:03 10° NNE
Cosmos 1300 4.5 06:50:38 10° SSE 06:53:06 16° ESE 06:54:37 13° E
KORONAS-FOTON 3.9 06:50:38 10° N 06:54:21 51° E 06:58:06 10° SSE
Meteor 1-21 4.3 06:50:48 10° N 06:56:18 60° E 07:01:55 10° SSE
Cosmos 1777 Rocket 4.0 06:52:08 10° SSW 06:57:30 72° ESE 07:02:48 10° NNE
NOSS 0 Rocket 4.1 06:51:50 10° SSW 06:58:04 59° SE 07:04:03 11° NE
CZ-4C R/B 4.1 06:53:10 10° NNE 06:58:46 20° ENE 07:03:54 10° ESE
ARGOS 3.7 06:55:46 10° S 07:01:12 65° WSW 07:06:33 10° NNW
Okean 2 3.7 06:58:42 10° NNE 07:02:39 44° E 07:06:38 10° SSE
CZ-4B R/B 3.7 06:58:13 10° SSE 07:03:10 35° E 07:08:00 10° NNE
Cosmos 1707 2.8 07:00:43 10° N 07:04:37 84° WSW 07:08:36 10° S
USA 305 3.6 07:01:48 10° WSW 07:05:49 44° SSE 07:08:59 15° E
CZ-4B R/B 4.1 07:02:03 10° S 07:06:04 48° WSW 07:10:15 10° NW
X-37B 3.1 07:04:53 10° NW 07:06:05 12° NNW 07:07:17 10° N
PAYLOAD B 4.4 07:03:56 10° SSE 07:09:32 55° E 07:15:02 10° N
Cosmos 1626 2.0 07:07:23 10° N 07:11:03 75° E 07:14:47 10° SSE
PSLV R/B 4.2 07:08:39 11° NNE 07:12:36 53° ESE 07:16:47 10° S
Cosmos 2279 Rocket 4.0 07:06:43 10° N 07:12:53 60° E 07:19:06 10° SSE
Geosat 4.0 07:08:41 10° NNE 07:13:44 87° ESE 07:18:52 10° SSW
Cosmos 1271 Rocket 3.9 07:11:42 10° SSE 07:14:53 24° ESE 07:15:57 21° E
Meteor 1-16 Rocket 4.2 07:10:48 10° S 07:16:07 57° ESE 07:21:20 11° NNE
SL-16 R/B 3.6 07:12:14 10° S 07:16:46 23° SE 07:19:50 16° E
Cosmos 2142 Rocket 4.5 07:10:45 10° N 07:16:49 63° E 07:22:58 10° SSE
Kosmos-1675 4.2 07:10:09 10° SW 07:17:23 80° NW 07:20:43 14° NNE
Cosmos 1634 Rocket 4.1 07:11:38 10° N 07:17:57 85° W 07:24:24 10° S
Cosmos 2151 Rocket 3.9 07:14:40 10° S 07:19:08 49° ESE 07:22:25 17° NE
Lacrosse 5 rocket 1.1 07:16:01 10° NW 07:19:35 53° NE 07:22:28 16° ESE
APEX 3.9 07:16:20 10° SSW 07:21:09 49° SE 07:23:20 24° ENE
H-2A R/B 2.2 07:19:39 13° NNE 07:23:42 66° ESE 07:28:16 10° S
Meteor 2-10 Rocket 4.1 07:18:51 10° S 07:23:50 40° ESE 07:26:58 21° NE
CZ-4B DEB 4.2 07:18:27 10° SSE 07:24:04 90° WNW 07:29:35 10° NNW
Genesis I 3.3 07:21:00 10° NW 07:24:39 68° SW 07:28:19 10° SE
Cosmos 1758 3.6 07:20:40 10° SSW 07:24:43 71° W 07:28:41 10° N
Cosmos 1908 3.3 07:22:01 10° S 07:25:57 83° W 07:29:49 10° N
Aureole 3 Rocket 3.3 07:25:25 25° NE 07:26:43 32° E 07:29:43 10° SSE
Cosmos 990 Rocket 4.5 07:22:48 10° SSW 07:27:46 42° ESE 07:30:22 25° ENE
PSLV R/B 3.9 07:24:29 10° SSE 07:28:37 83° WSW 07:32:36 10° NNW
CENTAUR R/B 4.5 07:22:58 10° W 07:29:10 28° SSW 07:34:32 10° SE
CZ-4B R/B 1.8 07:33:07 34° ESE 07:33:07 34° ESE 07:35:55 10° S
Sich 1 Rocket 3.6 07:29:20 10° S 07:33:57 89° ESE 07:38:12 12° N
Cosmos 1607 4.3 07:30:34 10° SW 07:36:57 68° WNW 07:42:06 16° NNE
Okean-O 4.3 07:33:53 10° SE 07:35:47 17° ESE 07:35:47 17° ESE
USA 276 1.8 07:35:52 10° WNW 07:38:54 74° NNE 07:39:22 57° E
FALCON 9 DEB 3.5 07:36:41 10° NW 07:39:25 39° NNE 07:39:25 39° NNE
Cosmos 1674 Rocket 3.7 07:38:37 15° NNE 07:42:11 53° E 07:46:37 10° SSE
USA 307 3.3 07:38:18 10° WSW 07:42:23 51° SSE 07:44:03 31° ESE
ATLAS 3B R/B 3.0 07:38:28 10° N 07:45:27 46° ENE 07:52:06 10° SE
SL-14 R/B 3.2 07:45:43 14° N 07:49:10 71° E 07:53:17 10° SSE
Cosmos 1898 Rocket 4.0 07:44:35 10° SSW 07:49:35 42° ESE 07:51:09 33° E
CZ-4 R/B 1.2 07:46:25 10° SSE 07:50:26 68° ENE 07:53:19 18° N
Cosmos 2227 Rocket 2.8 07:49:17 30° NE 07:50:40 34° ENE 07:55:47 10° SE
ATLAS 5 CENTAUR R/B 2.0 07:45:13 10° SW 07:51:09 82° NW 07:53:24 33° NNE
USA 306 3.0 07:50:48 10° WSW 07:54:56 61° SSE 07:56:02 43° E
SJ-6B 4.1 07:54:00 10° SSE 07:56:12 26° SE 07:56:12 26° SE
Cosmos 1980 3.7 07:54:44 10° SSW 08:00:28 81° WNW 08:03:27 30° NNE
Cosmos 2221 Rocket 3.8 07:57:29 10° NNW 08:02:06 76° W 08:06:44 10° S
Cosmos 2219 Rocket 4.3 07:58:12 10° SW 08:02:35 23° WNW 08:06:55 10° NNW
Cosmos 2297 Rocket 2.1 07:59:08 10° NNW 08:04:44 64° ENE 08:10:24 10° SSE
ERBS 3.3 08:02:30 10° SW 08:04:51 32° S 08:04:51 32° S
Cosmos 1953 2.6 08:02:19 10° SSW 08:06:27 70° W 08:08:02 35° N
Cosmos 1238 Rocket 3.6 08:01:05 10° S 08:06:55 59° ESE 08:08:13 45° NE
Okean O Rocket 1.8 08:06:11 10° S 08:10:39 73° WSW 08:15:00 10° NNW
Cosmos 1378 Rocket 3.5 08:08:26 19° NNW 08:11:29 81° W 08:15:55 10° S
USA 234 4.2 08:07:56 12° ESE 08:13:43 43° S 08:19:54 10° WSW
USA 308 2.8 08:13:14 10° WSW 08:17:24 69° SSE 08:17:39 67° SE
CSL-04 Debris 4.3 08:12:03 10° SSE 08:17:31 54° E 08:18:25 49° NE
Cosmos 1655 Rocket 4.1 08:11:27 10° S 08:17:56 82° W 08:21:59 25° N
Cosmos 1763 Rocket 3.4 08:14:58 13° NNW 08:19:35 72° ENE 08:24:57 10° SSE
Cosmos 2237 Rocket 2.6 08:15:29 10° SSW 08:21:09 61° WNW 08:23:39 33° N
Meteor 1-24 Rocket 4.3 08:21:42 40° E 08:21:42 40° E 08:26:52 10° SSE
Okean 1 Rocket 3.1 08:18:14 10° SSW 08:22:40 75° W 08:23:32 55° NNW
SL-8 R/B 3.8 08:18:05 10° WNW 08:22:31 56° N 08:22:31 56° N
USA 186 4.0 08:20:30 10° SSE 08:21:31 19° SSE 08:21:31 19° SSE
YAOGAN 1 3.9 08:22:05 10° S 08:26:14 41° WSW 08:30:20 10° NW
Cosmos 1455 Rocket 3.7 08:21:59 10° S 08:25:33 42° SE 08:25:33 42° SE
Cosmos 1300 3.5 08:25:10 10° SSW 08:28:54 47° W 08:29:28 43° WNW
Cosmos 372 Rocket 4.1 08:29:35 10° SSW 08:34:50 56° ESE 08:34:57 56° ESE
Cosmos 220 Rocket 4.2 08:30:27 10° SSW 08:34:56 68° WNW 08:35:10 66° NW
Cosmos 2219 3.1 08:42:07 68° ENE 08:42:07 68° ENE 08:47:39 10° SSE
Landsat 7 4.5 08:37:37 10° SSE 08:41:02 43° SE 08:41:02 43° SE
CZ-4B R/B 4.5 08:38:45 10° S 08:43:47 39° WSW 08:48:42 10° NW
USA 81 4.0 08:43:32 61° NNW 08:44:29 85° W 08:49:54 10° S
USA 305 3.5 08:41:15 10° WSW 08:44:31 52° W 08:44:31 52° W
CZ-4C R/B 2.8 08:38:20 10° NNW 08:46:42 73° NE 08:53:42 10° SE
CSL-04 Rocket 3.5 08:42:54 10° SSE 08:48:21 84° ENE 08:48:40 79° NNE
Cosmos 1455 3.9 08:45:44 10° S 08:47:40 27° S 08:47:40 27° S
Cosmos 1271 Rocket 4.4 08:47:26 10° SSW 08:50:45 29° W 08:50:59 28° W
Meteor 2-5 Rocket 3.6 08:50:46 75° ENE 08:50:51 75° E 08:56:46 10° SSE
Resurs 01 Rocket 3.6 08:48:38 10° SSE 08:50:00 19° SE 08:50:00 19° SE
IGS 5A 4.2 08:52:36 10° S 08:56:09 52° SSW 08:56:09 52° SSW
Cosmos 1244 Rocket 4.3 08:51:19 10° S 08:57:37 81° E 08:58:09 74° NE
Lacrosse 5 rocket 2.8 08:55:14 10° W 08:58:02 33° SW 08:58:02 33° SW
SL-16 R/B 2.1 08:55:50 10° SSW 09:01:37 84° WNW 09:01:43 83° NW
CZ-4B R/B 4.4 09:05:12 12° WSW 09:05:12 12° WSW 09:06:02 10° WSW
Cosmos 1937 Rocket 3.7 08:59:53 10° SSW 09:04:59 69° W 09:04:59 69° W
Cosmos 44 3.9 09:07:54 10° SW 09:12:22 57° S 09:12:22 57° S
Okean-O 3.5 09:09:33 10° S 09:13:21 48° SW 09:13:21 48° SW
Cosmos 1745 Rocket 4.2 09:16:41 10° S 09:22:20 62° SE 09:22:20 62° SE
CZ-4 R/B 4.4 09:22:41 10° SSW 09:24:53 14° WSW 09:27:05 10° W
ATLAS 5 CENTAUR R/B 4.3 09:32:00 10° WSW 09:34:30 13° WNW 09:34:52 13° WNW
Cosmos 2227 Rocket 3.1 09:30:39 18° WNW 09:34:36 46° SW 09:40:08 10° SSE
Cosmos 1943 3.9 09:29:15 10° SSW 09:33:43 47° SSE 09:33:43 47° SSE
ATLAS 3B R/B 3.4 09:29:00 10° WNW 09:36:10 54° SW 09:42:57 10° SE
BREEZE-M DEB (TANK) 3.9 09:24:11 10° W 09:36:46 66° NW 09:36:46 66° NW
Cosmos 2297 Rocket 4.1 09:44:24 10° WNW 09:49:14 28° SW 09:54:07 10° SSE
USA 234 3.7 09:55:16 50° SE 09:56:04 53° SSE 10:02:27 10° WSW
Cosmos 1709 Rocket 4.5 09:52:55 10° S 09:58:01 57° S 09:58:01 57° S
NOSS 3-1 (C) 4.2 10:07:08 10° NW 10:16:06 71° SW 10:23:44 10° SE
Resurs 01 Rocket 4.1 10:25:33 10° S 10:27:33 20° SSW 10:27:33 20° SSW
Cosmos 2263 Rocket 3.8 10:37:20 31° S 10:37:20 31° S 10:40:19 10° SSE
CZ-4C R/B 3.9 10:28:23 10° WNW 10:35:48 41° SW 10:42:00 10° SE
Terra 4.2 10:38:37 10° SSE 10:39:58 19° SSE 10:39:58 19° SSE
CENTAUR R/B 3.9 11:08:44 10° SW 11:12:41 30° S 11:12:41 30° S
CZ-2D R/B 4.2 11:26:36 22° SSE 11:26:36 22° SSE 11:29:03 10° S
Resurs 1-4 Rocket 4.1 11:26:46 23° SSE 11:26:46 23° SSE 11:29:23 10° S
Cosmos 1833 Rocket 4.5 11:27:04 10° SSW 11:30:17 28° S 11:30:17 28° S
Cosmos 2082 Rocket 4.1 11:44:53 10° S 11:49:09 24° SE 11:49:09 24° SE
